Clinton, IA

10:55 AM CST on December 12, 2017 (GMT -0600)
Clinton Municipal

Weather History for KCWI - March, 2013

Change the Weather History Date:

Friday, March 1, 2013

  Actual Average Record
Temperature  
Mean Temperature 24 °F -  
Max Temperature 28 °F 44 °F 70 °F (1992)
Min Temperature 19 °F 24 °F -13 °F (1962)
Degree Days  
Heating Degree Days 42    
Moisture  
Dew Point 18 °F    
Average Humidity 72    
Maximum Humidity 86    
Minimum Humidity 64    
Precipitation  
Precipitation 0.00 in - - ()
Sea Level Pressure  
Sea Level Pressure 30.21 in    
Wind  
Wind Speed 13 mph (NNE)    
Max Wind Speed 21 mph    
Max Gust Speed 23 mph    
Visibility 10 miles    
Events      
Averages and records for this station are not official NWS values.
T = Trace of Precipitation, MM = Missing Value Source: NWS Daily Summary

Daily Weather History Graph

Daily Weather History Graph

Search for Another Location

Airport or City:

Trip Planner

Search our weather history database for the weather conditions in past years. The results will help you decide how hot, cold, wet, or windy it might be!

Date:

Astronomy

Mar. 01, 2013 Rise Set
Actual Time 6:35 AM CST 5:51 PM CST
Civil Twilight 6:07 AM CST 6:19 PM CST
Nautical Twilight 5:35 AM CST 6:52 PM CST
Astronomical Twilight 5:03 AM CST 7:24 PM CST
Moon 10:30 PM CST (3/1) 8:18 AM CST (3/1)
Length of Visible Light 12h 12m
Length of Day
11h 16m
Waning Gibbous, 83% of the Moon is Illuminated
Mar 1
Waning Gibbous
Mar 4
Last Quarter
Mar 11
New
Mar 19
First Quarter
Mar 27
Full

Hourly Weather History & Observations

Time (CST) Temp. Windchill Dew Point Humidity Pressure Visibility Wind Dir Wind Speed Gust Speed Precip Events Conditions
12:15 AM 28.4 °F 18.5 °F 24.8 °F 86% 30.12 in 8.0 mi ENE 11.5 mph - N/A   Overcast
12:35 AM 28.4 °F 18.5 °F 21.2 °F 74% 30.13 in 10.0 mi ENE 11.5 mph - N/A   Overcast
12:55 AM 28.4 °F 17.5 °F 21.2 °F 74% 30.13 in 10.0 mi ENE 13.8 mph - N/A   Overcast
1:15 AM 28.4 °F 18.0 °F 19.4 °F 69% 30.13 in 10.0 mi ENE 12.7 mph - N/A   Overcast
1:35 AM 26.6 °F 16.8 °F 21.2 °F 80% 30.13 in 10.0 mi ENE 10.4 mph - N/A   Overcast
1:55 AM 26.6 °F 15.7 °F 21.2 °F 80% 30.13 in 10.0 mi ENE 12.7 mph - N/A   Overcast
2:15 AM 26.6 °F 13.8 °F 19.4 °F 74% 30.13 in 10.0 mi ENE 17.3 mph - N/A   Overcast
2:35 AM 26.6 °F 13.8 °F 19.4 °F 74% 30.13 in 10.0 mi ENE 17.3 mph - N/A   Overcast
3:55 AM 26.6 °F 17.5 °F 15.8 °F 64% 30.13 in 10.0 mi NNE 9.2 mph - N/A   Overcast
4:15 AM 26.6 °F 16.2 °F 15.8 °F 64% 30.13 in 10.0 mi NNE 11.5 mph - N/A   Overcast
4:35 AM 26.6 °F 15.7 °F 15.8 °F 64% 30.14 in 10.0 mi NNE 12.7 mph 17.3 mph N/A   Overcast
5:15 AM 24.8 °F 12.4 °F 15.8 °F 69% 30.14 in 10.0 mi NNE 15.0 mph - N/A   Overcast
5:35 AM 24.8 °F 12.9 °F 17.6 °F 74% 30.15 in 10.0 mi NNE 13.8 mph - N/A   Overcast
6:15 AM 24.8 °F 11.9 °F 15.8 °F 69% 30.16 in 10.0 mi NNE 16.1 mph 20.7 mph N/A   Overcast
6:35 AM 24.8 °F 12.4 °F 17.6 °F 74% 30.16 in 10.0 mi NNE 15.0 mph - N/A   Overcast
6:55 AM 24.8 °F 11.9 °F 17.6 °F 74% 30.17 in 10.0 mi NNE 16.1 mph - N/A   Overcast
7:15 AM 24.8 °F 11.5 °F 17.6 °F 74% 30.17 in 10.0 mi NNE 17.3 mph 21.9 mph N/A   Overcast
7:35 AM 24.8 °F 11.5 °F 15.8 °F 69% 30.18 in 10.0 mi NNE 17.3 mph 23.0 mph N/A   Overcast
8:15 AM 24.8 °F 10.3 °F 17.6 °F 74% 30.19 in 10.0 mi NNE 20.7 mph - N/A   Overcast
8:35 AM 24.8 °F 10.7 °F 17.6 °F 74% 30.19 in 10.0 mi NNE 19.6 mph 23.0 mph N/A   Overcast
9:15 AM 26.6 °F 12.7 °F 17.6 °F 69% 30.19 in 10.0 mi NNE 20.7 mph - N/A   Overcast
9:35 AM 26.6 °F 13.1 °F 17.6 °F 69% 30.20 in 10.0 mi NNE 19.6 mph - N/A   Overcast
10:15 AM 26.6 °F 13.4 °F 17.6 °F 69% 30.20 in 10.0 mi NNE 18.4 mph - N/A   Overcast
10:35 AM 28.4 °F 15.8 °F 17.6 °F 64% 30.21 in 10.0 mi NNE 18.4 mph - N/A   Overcast
10:55 AM 28.4 °F 15.8 °F 17.6 °F 64% 30.21 in 10.0 mi NNE 18.4 mph - N/A   Overcast
11:15 AM 28.4 °F 15.8 °F 17.6 °F 64% 30.21 in 10.0 mi NNE 18.4 mph - N/A   Overcast
11:35 AM 28.4 °F 16.6 °F 17.6 °F 64% 30.22 in 10.0 mi North 16.1 mph - N/A   Overcast
11:55 AM 28.4 °F 17.0 °F 19.4 °F 69% 30.22 in 10.0 mi North 15.0 mph - N/A   Overcast
12:15 PM 28.4 °F 17.0 °F 17.6 °F 64% 30.22 in 10.0 mi North 15.0 mph - N/A   Overcast
12:35 PM 28.4 °F 16.2 °F 19.4 °F 69% 30.21 in 10.0 mi North 17.3 mph - N/A   Overcast
12:55 PM 28.4 °F 17.5 °F 19.4 °F 69% 30.21 in 9.0 mi North 13.8 mph - N/A   Overcast
1:35 PM 28.4 °F 16.6 °F 19.4 °F 69% 30.20 in 10.0 mi NNE 16.1 mph - N/A   Overcast
1:55 PM 28.4 °F 16.6 °F 19.4 °F 69% 30.20 in 10.0 mi NNE 16.1 mph - N/A   Overcast
2:15 PM 26.6 °F 14.7 °F 19.4 °F 74% 30.20 in 10.0 mi NNE 15.0 mph - N/A   Overcast
2:35 PM 26.6 °F 14.3 °F 19.4 °F 74% 30.21 in 10.0 mi NE 16.1 mph - N/A   Overcast
3:15 PM 26.6 °F 13.8 °F 19.4 °F 74% 30.21 in 10.0 mi NE 17.3 mph - N/A   Overcast
3:35 PM 28.4 °F 16.6 °F 19.4 °F 69% 30.21 in 10.0 mi NNE 16.1 mph - N/A   Overcast
4:15 PM 26.6 °F 14.7 °F 19.4 °F 74% 30.23 in 10.0 mi NNE 15.0 mph - N/A   Overcast
4:35 PM 26.6 °F 15.7 °F 17.6 °F 69% 30.23 in 10.0 mi NNE 12.7 mph - N/A   Overcast
4:55 PM 26.6 °F 15.7 °F 17.6 °F 69% 30.24 in 10.0 mi NNE 12.7 mph - N/A   Overcast
5:15 PM 26.6 °F 15.2 °F 17.6 °F 69% 30.24 in 10.0 mi NE 13.8 mph - N/A   Overcast
5:35 PM 26.6 °F 16.2 °F 17.6 °F 69% 30.24 in 10.0 mi NE 11.5 mph - N/A   Overcast
5:55 PM 26.6 °F 16.8 °F 17.6 °F 69% 30.25 in 10.0 mi NNE 10.4 mph - N/A   Overcast
6:15 PM 26.6 °F 15.7 °F 17.6 °F 69% 30.25 in 10.0 mi NNE 12.7 mph - N/A   Overcast
6:35 PM 26.6 °F 16.2 °F 17.6 °F 69% 30.26 in 10.0 mi NE 11.5 mph - N/A   Overcast
6:55 PM 26.6 °F 16.8 °F 17.6 °F 69% 30.26 in 10.0 mi NE 10.4 mph - N/A   Overcast
7:15 PM 26.6 °F 16.8 °F 17.6 °F 69% 30.26 in 10.0 mi NE 10.4 mph - N/A   Overcast
7:35 PM 26.6 °F 16.8 °F 17.6 °F 69% 30.27 in 10.0 mi NE 10.4 mph - N/A   Overcast
7:55 PM 26.6 °F 18.2 °F 17.6 °F 69% 30.27 in 10.0 mi NNE 8.1 mph - N/A   Overcast
8:15 PM 24.8 °F 17.9 °F 17.6 °F 74% 30.27 in 10.0 mi NNE 5.8 mph - N/A   Overcast
8:35 PM 24.8 °F 19.1 °F 17.6 °F 74% 30.28 in 10.0 mi NNE 4.6 mph - N/A   Overcast
8:55 PM 24.8 °F 19.1 °F 17.6 °F 74% 30.28 in 10.0 mi NE 4.6 mph - N/A   Overcast
9:15 PM 23.0 °F 17.0 °F 15.8 °F 74% 30.28 in 10.0 mi NE 4.6 mph - N/A   Overcast
9:35 PM 23.0 °F 18.4 °F 15.8 °F 74% 30.27 in 10.0 mi NE 3.5 mph - N/A   Overcast
9:55 PM 21.2 °F - 15.8 °F 80% 30.27 in 10.0 mi Calm Calm - N/A   Scattered Clouds
10:15 PM 21.2 °F - 15.8 °F 80% 30.27 in 10.0 mi Calm Calm - N/A   Scattered Clouds
10:35 PM 21.2 °F - 15.8 °F 80% 30.27 in 10.0 mi Calm Calm - N/A   Mostly Cloudy
10:55 PM 19.4 °F 14.3 °F 14.0 °F 80% 30.27 in 10.0 mi NNW 3.5 mph - N/A   Mostly Cloudy
11:15 PM 19.4 °F 11.5 °F 15.8 °F 86% 30.27 in 10.0 mi NNW 5.8 mph - N/A   Mostly Cloudy
11:35 PM 21.2 °F 16.4 °F 15.8 °F 80% 30.26 in 10.0 mi NNW 3.5 mph - N/A   Overcast
11:55 PM 19.4 °F 14.3 °F 15.8 °F 86% 30.26 in 10.0 mi WNW 3.5 mph - N/A   Overcast